Wind_Speed
40 40 40 41 42 43 44 44 45 45 45 45 46 47 48 49 50 51 53 55 56 59 62 64 63 61 58 54 52 54 57 57 54 52 50 48 46 47 46 43 41 40 38 37 36 34 33 32 33 36 37 36 37 40 44 46 47 47 46 44 43 42 40
41 41 41 42 42 44 45 46 46 47 47 47 47 48 48 49 50 51 53 54 56 57 59 62 63 63 62 59 54 54 58 59 57 55 54 51 49 49 49 46 45 44 43 42 41 39 37 35 34 35 35 35 36 37 39 41 42 43 44 43 43 42 39
43 43 44 44 44 45 45 46 47 48 49 49 49 50 50 50 51 52 53 54 56 57 59 60 62 62 62 63 60 56 56 59 59 58 57 55 52 52 51 49 48 48 47 45 44 44 41 39 36 34 35 36 37 38 37 37 37 38 39 40 41 40 39
45 45 46 46 46 46 47 48 48 49 50 51 51 52 52 52 52 53 54 55 56 57 59 60 62 62 61 63 63 60 58 59 59 59 59 58 57 55 54 52 50 51 51 48 48 47 44 42 39 37 37 37 38 39 39 37 35 35 36 36 37 37 36
47 47 48 48 48 48 49 50 50 51 52 52 53 53 53 54 55 55 55 56 57 57 59 60 62 62 62 62 63 63 61 60 60 59 60 60 60 59 57 55 53 53 53 52 51 50 48 46 44 42 41 39 39 40 41 39 37 35 35 36 37 37 35
50 49 50 50 50 51 51 51 52 53 53 54 55 55 55 56 56 57 57 57 58 59 59 60 61 62 62 62 63 64 63 62 62 61 61 61 61 61 60 59 56 55 55 55 54 52 51 50 47 45 44 41 39 39 40 40 39 38 37 37 38 37 35
53 52 52 52 52 52 53 54 54 54 55 56 56 57 58 58 58 58 59 59 59 60 60 61 62 62 63 63 63 64 64 64 63 64 63 63 63 63 63 61 59 58 57 57 57 55 54 52 50 48 47 43 40 40 40 40 41 40 39 39 39 38 36
55 55 55 55 54 54 55 55 56 56 57 57 58 59 60 60 60 60 61 61 61 61 62 62 63 63 64 64 64 64 65 65 64 65 65 65 65 65 65 64 63 61 61 61 59 58 57 56 54 52 50 47 44 43 43 42 41 40 41 41 40 39 38
56 56 57 58 58 57 56 56 57 57 58 59 60 60 61 62 62 63 63 63 63 63 64 64 65 65 65 66 66 66 66 67 66 66 66 67 68 67 67 66 65 65 65 65 64 62 61 60 58 57 55 52 50 48 47 45 43 43 43 43 42 41 39
58 58 58 59 60 60 59 59 58 59 59 60 60 61 62 63 63 64 64 64 65 65 66 66 66 66 67 68 68 68 68 68 68 68 68 68 69 69 69 69 68 68 68 69 69 67 66 64 63 61 60 58 55 53 52 50 49 48 48 47 46 45 43
61 61 60 60 60 61 61 61 61 61 61 61 61 62 63 63 64 65 65 66 66 67 67 67 68 68 68 69 70 71 71 70 70 71 71 70 70 70 71 71 71 71 71 71 71 71 70 68 67 66 64 63 60 57 56 56 54 53 53 51 50 50 47
65 64 63 63 63 62 62 63 64 64 64 63 63 64 64 64 65 65 66 66 67 67 68 68 69 69 70 71 72 72 73 73 72 72 73 73 72 71 71 72 73 73 73 73 73 74 74 73 72 70 69 67 65 62 60 60 58 57 57 56 54 53 50
68 68 67 67 66 66 65 65 65 66 66 66 66 66 66 66 66 66 67 67 67 68 68 69 70 70 71 72 73 74 74 75 75 75 75 75 75 74 73 73 73 74 75 75 74 75 75 76 76 75 73 71 69 66 64 63 61 61 62 59 57 56 54
72 71 71 70 70 69 69 68 68 68 68 68 68 68 68 68 68 68 68 68 68 68 69 70 70 71 72 73 74 75 75 76 77 77 77 77 77 76 75 75 75 75 76 76 76 76 76 77 78 78 77 75 73 71 69 67 64 64 66 64 60 59 58
74 74 73 73 73 72 72 72 71 71 71 71 71 71 71 70 70 70 70 70 70 70 70 71 71 72 73 74 75 76 76 77 77 78 79 79 79 79 78 77 77 77 77 76 77 78 78 78 79 79 79 78 77 75 74 72 70 68 69 69 65 63 62
74 75 75 75 75 74 74 74 74 74 74 74 73 73 73 72 72 72 72 72 72 72 72 72 73 73 74 75 76 77 77 78 78 79 80 81 81 81 80 80 79 79 79 78 78 78 79 79 80 80 81 81 80 79 78 77 75 73 73 74 71 67 65
75 75 75 75 75 75 75 76 76 76 76 76 75 75 74 74 75 75 75 75 75 74 74 74 74 75 75 76 77 78 78 78 78 79 80 81 82 82 82 82 82 82 81 80 80 80 80 81 81 81 81 82 82 82 81 80 79 77 76 77 75 71 69
76 75 75 75 74 74 75 76 76 77 77 77 77 76 76 76 76 77 77 78 78 77 77 76 76 77 77 78 78 78 79 79 79 79 80 81 82 82 83 83 84 84 83 82 82 82 82 82 82 82 82 83 83 83 83 83 82 81 80 80 79 75 72
78 77 77 76 75 75 75 76 76 76 77 77 77 77 77 77 78 78 79 79 79 79 79 79 79 79 80 80 80 80 80 80 79 79 80 81 82 83 83 84 85 86 86 85 84 84 85 85 84 83 83 84 84 84 84 84 83 83 83 82 82 79 76
82 81 80 79 78 78 78 77 77 77 76 76 76 77 77 78 79 80 80 80 80 80 80 81 82 82 82 82 81 81 81 81 81 80 80 81 82 83 83 84 85 86 87 87 86 86 86 86 86 85 85 85 86 85 85 85 84 83 83 83 83 83 80
86 85 84 83 82 82 81 80 79 78 77 76 76 76 77 78 79 80 81 81 81 81 81 82 82 83 83 83 83 82 82 82 82 82 82 82 82 82 83 84 85 86 87 87 87 87 87 87 87 87 87 87 87 87 87 87 86 85 84 83 83 83 83
90 89 88 87 86 85 84 83 82 81 79 78 78 78 78 79 80 80 81 81 81 82 82 82 83 84 84 84 84 83 82 82 82 83 83 84 83 83 83 84 85 86 87 87 88 88 88 88 88 87 88 89 89 89 88 88 88 87 86 85 84 84 84
93 92 91 90 90 89 88 87 86 84 82 81 81 81 81 81 81 81 81 81 81 81 82 82 83 84 84 84 84 83 83 83 83 83 83 84 85 85 85 84 85 86 87 87 88 88 89 89 88 88 89 90 90 90 89 89 88 88 87 87 87 86 85
94 94 93 93 92 92 91 90 89 88 86 85 85 84 84 84 84 83 83 82 82 82 82 83 83 83 84 84 84 84 84 84 83 83 83 84 85 86 86 86 86 86 86 87 88 88 89 89 89 89 89 89 90 90 90 89 88 88 88 88 88 89 87
93 93 94 94 94 94 93 92 91 90 89 89 89 88 88 88 87 86 85 85 84 84 84 84 84 84 84 84 83 83 83 84 84 83 84 84 84 86 87 87 87 87 87 87 88 88 88 89 89 89 89 89 89 90 90 89 89 89 88 87 88 88 87
89 90 91 93 94 94 94 93 92 92 92 92 92 91 91 90 89 89 88 87 87 87 87 87 87 86 86 85 84 83 83 83 83 83 84 84 85 85 86 87 88 88 89 89 88 88 88 89 89 88 88 88 89 89 89 89 89 89 89 87 86 86 87
85 85 87 89 90 91 92 92 92 93 93 94 94 94 93 92 91 90 89 89 89 89 90 90 90 89 88 87 86 85 84 83 84 84 85 85 85 85 86 86 87 88 90 90 90 90 89 90 90 89 88 87 87 88 88 88 88 88 89 88 86 86 87
83 82 82 83 85 86 86 87 88 89 91 93 94 95 95 94 92 91 91 91 90 90 91 91 91 91 90 89 88 87 86 86 86 86 86 86 86 85 86 86 86 87 89 90 91 92 91 91 91 90 89 87 87 87 87 86 87 87 88 88 87 87 88
83 79 76 76 76 76 77 79 81 83 86 88 90 91 92 92 92 92 92 92 92 92 92 92 92 91 90 90 89 89 88 88 88 88 88 88 88 87 87 86 86 87 88 89 91 93 93 93 92 92 91 89 88 87 85 85 85 86 87 87 87 87 88
82 75 70 68 67 67 68 71 74 76 79 81 83 85 86 87 88 89 90 92 92 92 93 93 92 91 90 90 89 88 88 88 88 89 89 90 90 89 89 88 88 87 88 89 91 93 94 94 93 93 93 92 90 88 86 85 85 85 85 86 86 87 87
78 72 67 64 62 60 60 63 66 70 73 74 76 77 79 80 82 84 85 87 88 89 89 90 91 90 90 90 89 88 88 88 88 89 89 90 91 91 91 91 90 89 89 91 92 93 94 95 94 94 94 93 92 89 87 88 87 86 85 86 86 86 86
75 70 65 62 59 56 55 57 61 65 66 67 68 70 72 74 76 79 81 82 82 82 82 83 84 84 84 85 86 86 86 86 87 88 89 90 91 91 91 92 92 92 92 92 94 95 95 95 94 94 94 93 92 90 91 91 90 87 86 85 85 85 85
73 68 64 61 58 56 55 57 59 60 60 60 61 62 64 67 71 75 77 76 76 75 75 76 76 77 77 78 80 81 81 82 83 85 87 88 89 90 91 92 93 94 94 94 95 96 96 96 95 94 94 92 90 91 94 94 92 89 87 85 85 85 85
69 66 63 61 59 57 57 57 56 55 54 53 54 56 59 64 68 70 71 71 70 70 70 70 71 72 73 74 75 75 75 76 78 79 80 82 84 86 88 91 93 95 95 95 95 96 96 96 96 95 94 91 90 92 94 95 93 92 89 86 85 85 85
66 64 62 61 59 58 57 54 52 50 49 49 50 53 58 62 63 64 65 65 65 65 66 67 67 68 69 69 69 69 69 70 71 72 72 74 77 80 83 87 90 93 94 94 94 95 95 95 96 95 94 93 92 92 93 93 94 93 91 88 86 85 84
63 61 60 58 57 56 54 51 49 47 47 47 49 53 56 58 57 57 58 59 60 61 62 63 63 63 63 63 64 65 65 65 65 65 65 67 71 74 77 81 85 88 91 91 92 93 94 94 94 95 95 95 93 92 91 92 93 94 93 90 87 85 84
59 58 56 55 54 53 51 48 46 45 45 47 49 51 52 51 50 50 51 53 55 57 58 58 59 58 58 59 61 62 61 60 60 59 59 62 65 69 71 74 77 81 84 86 88 90 92 92 93 94 95 96 95 92 91 91 92 94 94 92 88 85 85
Wind_Direction
244 243 244 242 241 240 240 240 240 240 240 240 240 240 239 237 237 237 237 237 236 236 237 238 237 236 233 231 229 230 234 236 236 237 238 237 234 231 231 230 229 231 232 233 234 233 233 234 235 238 242 243 241 240 239 238 238 238 237 237 240 242 244
245 244 244 243 243 241 240 240 240 240 240 241 241 241 242 241 239 238 238 238 238 238 238 239 240 239 238 237 234 231 232 236 237 237 238 237 234 232 233 232 230 229 228 229 232 232 229 230 232 234 238 241 243 243 242 241 240 241 240 238 239 240 241
246 245 244 243 243 243 242 241 241 240 240 240 241 241 242 243 242 241 240 239 239 239 239 240 241 242 241 241 240 236 233 235 238 238 238 238 235 232 233 235 234 232 229 227 230 231 229 228 230 232 234 236 239 241 240 238 237 238 240 240 240 240 240
247 247 246 245 244 244 244 243 243 242 242 241 241 241 241 241 242 243 242 241 240 239 240 241 242 243 243 242 243 242 237 235 236 237 238 239 238 235 233 234 235 235 233 231 230 230 228 227 228 231 232 232 235 237 236 233 230 230 233 236 238 240 241
249 248 248 247 246 245 244 244 243 243 243 243 242 242 242 241 241 242 242 243 242 241 240 241 242 243 244 243 243 244 242 239 237 237 237 238 239 238 235 234 234 236 236 236 235 232 228 226 226 228 230 230 232 235 234 231 227 224 225 230 235 239 240
250 249 249 249 248 247 246 245 245 244 244 244 244 244 244 243 243 243 242 242 243 243 242 242 242 243 244 244 244 244 244 242 240 239 237 236 237 238 238 236 234 234 236 238 239 237 233 229 227 228 231 231 232 235 236 234 232 228 225 227 232 236 238
251 250 250 250 250 249 248 247 247 246 245 245 245 245 245 244 244 244 244 243 243 243 244 243 243 243 244 245 244 244 244 244 242 241 239 237 236 237 238 237 235 233 235 237 239 239 238 234 231 231 233 232 232 235 237 236 236 235 233 230 229 233 237
252 252 251 251 251 250 250 250 249 248 247 246 246 246 246 245 245 244 244 244 244 244 244 244 244 244 244 245 245 245 245 245 244 243 242 240 238 236 236 237 236 234 234 235 237 238 239 237 234 234 235 233 231 232 234 235 234 235 236 234 231 234 239
253 253 252 252 251 251 251 251 251 250 249 249 248 247 247 246 246 246 245 245 245 245 244 244 244 244 245 245 246 246 245 245 245 244 243 242 241 238 236 236 236 235 234 234 236 237 239 239 238 236 235 235 232 231 232 234 234 233 233 236 236 237 241
253 253 252 252 252 251 251 251 252 251 251 250 250 250 249 249 248 247 246 246 245 245 245 245 245 245 245 246 246 246 246 246 246 245 244 243 242 241 239 237 236 236 235 235 236 237 238 239 239 238 237 236 235 233 233 233 233 234 234 236 239 240 241
255 254 253 253 252 252 251 251 251 251 251 251 250 250 250 250 250 249 248 247 247 246 246 245 245 245 245 246 246 247 247 246 246 246 246 244 244 243 242 240 238 236 236 236 236 237 237 238 238 239 239 239 239 237 236 234 234 235 236 237 239 241 242
257 256 255 254 253 252 252 251 251 251 251 251 250 250 250 250 251 251 251 250 249 248 248 247 246 245 245 245 246 246 247 247 246 246 247 246 245 244 243 243 241 239 238 237 236 237 238 238 238 239 240 241 241 240 239 238 237 237 238 237 238 241 242
257 257 257 256 255 254 253 252 251 251 251 251 250 251 251 250 251 251 251 251 251 251 250 249 248 247 246 246 246 246 246 247 247 247 247 247 247 246 244 244 243 243 241 239 238 238 238 239 239 239 240 240 241 241 240 239 239 240 241 239 239 241 242
258 257 257 257 256 255 254 253 252 252 251 251 251 251 251 251 251 251 251 251 252 252 251 251 250 249 248 247 246 246 246 246 247 247 247 247 247 247 246 245 245 244 244 242 240 239 239 239 240 240 240 240 241 241 240 240 239 241 243 242 240 241 242
258 258 257 257 257 256 255 254 253 252 252 252 251 251 251 251 251 251 251 251 251 251 251 251 251 251 251 250 249 247 246 246 246 247 247 248 248 248 248 247 247 246 245 244 243 242 240 240 240 241 241 241 241 241 241 240 239 240 243 244 242 241 242
257 257 257 257 257 257 257 256 255 254 253 252 252 252 252 252 252 252 251 251 251 251 251 251 251 251 251 251 251 250 248 247 247 247 247 247 248 248 248 248 248 248 247 246 246 245 243 242 241 241 241 242 241 241 241 241 241 240 242 244 244 243 243
257 256 256 257 257 257 257 257 256 256 255 254 253 253 253 253 253 253 252 252 252 252 251 251 251 251 251 251 252 251 250 249 248 248 247 247 247 247 248 248 248 248 248 248 247 247 246 245 243 242 242 242 242 242 242 241 242 242 242 244 245 245 245
257 257 257 257 256 256 256 256 256 256 256 255 255 255 254 254 254 253 253 253 252 252 252 252 252 252 251 251 252 252 252 251 250 249 249 248 248 248 247 247 248 248 248 248 248 248 248 248 246 245 244 243 243 243 243 243 243 243 243 244 246 246 246
258 257 257 257 257 256 256 256 255 255 255 255 255 255 255 255 254 254 254 253 253 253 252 252 252 251 251 251 251 251 252 252 251 250 250 249 249 249 248 247 247 248 248 248 248 248 249 249 248 248 246 246 245 244 244 244 244 244 244 244 246 247 247
258 258 258 257 257 256 256 256 256 255 255 255 255 255 255 255 254 254 254 254 254 253 253 252 252 251 251 251 251 251 251 252 252 251 251 250 250 250 249 248 248 248 248 247 247 247 248 249 249 249 249 248 247 247 246 245 245 244 244 244 245 247 248
258 258 258 258 258 257 257 257 256 256 255 255 255 255 254 254 254 254 254 254 254 254 254 253 253 252 252 251 251 251 251 251 252 252 252 251 251 250 250 250 249 248 248 247 247 247 247 247 248 249 249 249 248 248 248 248 247 246 245 245 245 246 247
258 258 258 258 258 258 258 257 257 257 256 256 255 255 255 255 254 254 254 254 254 254 254 254 254 253 253 252 252 251 251 251 252 252 252 251 251 251 250 250 250 250 249 248 247 247 247 247 247 247 248 249 249 249 248 248 248 248 248 247 247 246 247
258 258 258 258 258 258 259 258 258 258 257 257 256 256 256 255 255 255 255 254 254 254 254 254 254 254 253 253 253 252 252 251 251 251 251 251 251 251 251 250 250 250 250 249 248 248 247 247 246 246 247 248 249 250 250 249 249 248 249 249 249 249 248
257 257 258 258 258 258 258 259 259 259 258 258 257 257 256 256 256 255 255 255 255 255 254 254 254 254 253 253 253 252 252 252 252 251 251 251 251 251 250 250 250 250 250 250 249 249 248 247 246 246 246 246 247 248 249 250 250 249 248 248 249 250 250
255 256 257 257 258 258 258 258 259 259 259 259 258 258 257 257 256 256 256 256 256 256 255 255 254 254 254 253 253 253 252 252 252 252 251 250 250 250 250 250 250 249 249 250 250 249 249 248 247 246 245 245 246 247 248 249 249 250 249 248 248 249 250
254 255 256 257 258 258 259 259 259 259 259 259 259 259 258 258 257 257 257 257 256 256 256 256 255 255 254 254 254 253 253 252 252 252 251 250 250 250 250 250 249 249 249 249 249 249 249 249 248 247 246 245 245 245 246 247 248 249 250 249 249 249 249
255 255 256 257 257 258 259 259 260 260 260 260 260 260 259 259 258 258 257 257 257 257 257 256 256 255 255 255 254 254 253 253 253 253 252 251 250 250 249 249 249 249 249 249 248 249 249 249 249 248 247 245 245 245 245 245 246 247 249 250 249 249 250
259 258 257 257 258 259 260 260 261 261 261 261 261 261 260 260 260 259 259 258 258 258 257 257 256 256 255 255 255 254 254 254 253 253 253 252 251 251 250 249 249 249 249 249 248 248 248 248 248 248 248 246 245 244 244 244 245 245 246 248 248 248 249
263 262 261 260 261 261 262 262 261 261 261 261 260 260 261 261 261 260 260 259 259 258 258 258 257 257 256 256 255 255 254 254 253 253 253 253 252 252 251 250 249 249 249 249 249 248 247 247 247 248 248 247 246 245 244 244 244 244 245 246 247 247 248
267 267 266 265 264 263 262 262 262 262 261 261 261 261 261 261 261 261 260 260 259 259 259 259 258 258 258 257 257 256 255 254 254 253 253 253 252 252 251 251 250 249 249 249 249 248 247 246 246 246 247 247 247 246 245 245 244 244 244 245 245 246 247
270 271 270 269 267 265 263 262 262 261 261 261 261 261 262 262 262 261 261 260 260 259 259 259 259 259 259 258 258 257 256 255 255 254 253 252 252 251 251 251 250 249 249 248 248 249 248 247 246 245 246 247 247 247 246 246 245 244 244 244 245 245 246
271 272 273 272 271 270 268 266 264 262 261 261 262 262 262 262 262 262 261 261 260 260 260 260 260 260 259 259 258 257 256 255 255 254 253 252 252 251 250 250 250 249 248 247 247 248 248 248 247 245 245 245 246 247 247 246 245 244 244 244 245 245 246
269 272 273 274 273 273 271 269 265 263 263 263 263 263 263 263 262 262 262 262 262 262 262 262 262 261 260 259 258 257 255 255 254 253 253 252 252 251 250 249 249 248 247 247 247 247 247 247 247 246 245 245 245 246 246 246 246 245 244 244 244 245 246
269 272 273 274 274 273 272 270 268 267 266 266 265 264 263 261 261 262 263 264 264 264 264 263 263 262 260 259 258 257 256 255 254 253 253 253 252 251 250 249 248 247 247 246 246 246 246 247 247 247 246 245 244 244 246 247 247 246 245 244 244 244 246
270 271 272 272 272 272 272 271 271 271 270 268 266 264 262 261 262 263 265 266 265 265 264 263 262 262 261 261 261 260 259 257 256 254 253 253 252 251 249 248 247 247 246 246 246 246 246 246 246 247 247 246 244 244 244 246 247 247 246 244 244 244 245
269 270 271 271 272 272 272 273 274 274 272 269 266 264 263 263 264 265 265 265 264 263 262 262 262 262 262 262 262 261 260 258 257 256 254 253 252 251 249 248 247 247 246 245 245 245 245 245 245 246 246 246 245 244 244 244 246 247 247 246 244 244 244
268 269 270 271 271 272 273 275 276 275 271 268 266 265 265 266 265 264 263 262 262 261 261 261 262 263 263 263 263 262 261 260 259 258 256 254 253 251 249 248 247 247 246 246 245 244 244 244 244 244 245 245 245 245 244 244 245 246 247 247 245 244 244
Height
10650 10651 10652 10654 10655 10657 10659 10660 10662 10664 10666 10667 10669 10670 10671 10673 10675 10677 10679 10680 10682 10684 10685 10687 10690 10692 10694 10697 10700 10701 10702 10703 10706 10708 10708 10711 10714 10714 10713 10715 10716 10717 10719 10721 10722 10723 10724 10725 10726 10727 10728 10730 10732 10734 10736 10737 10739 10741 10743 10745 10746 10748 10750
10644 10646 10647 10648 10650 10651 10653 10655 10657 10658 10660 10662 10663 10665 10666 10667 10669 10671 10673 10674 10676 10678 10679 10681 10683 10685 10688 10690 10693 10695 10696 10698 10700 10702 10703 10706 10709 10709 10709 10712 10712 10712 10713 10715 10716 10718 10720 10720 10721 10722 10724 10726 10728 10729 10731 10733 10735 10737 10739 10741 10741 10743 10746
10638 10640 10641 10643 10644 10645 10647 10649 10651 10652 10654 10656 10658 10659 10660 10661 10663 10664 10666 10668 10670 10671 10673 10674 10676 10679 10681 10683 10685 10688 10690 10692 10694 10696 10698 10700 10703 10704 10705 10707 10708 10708 10709 10710 10711 10712 10715 10716 10717 10718 10720 10722 10723 10724 10726 10728 10730 10733 10735 10736 10737 10738 10741
10632 10634 10635 10636 10638 10640 10641 10643 10644 10646 10648 10650 10651 10653 10654 10656 10657 10658 10659 10661 10663 10665 10666 10668 10669 10671 10674 10676 10678 10680 10683 10685 10687 10689 10691 10693 10696 10699 10700 10702 10703 10703 10704 10706 10706 10707 10710 10712 10713 10713 10714 10717 10719 10720 10722 10724 10726 10728 10730 10732 10733 10734 10736
10626 10627 10628 10630 10632 10633 10635 10636 10638 10640 10641 10643 10645 10646 10648 10649 10650 10651 10653 10654 10656 10658 10659 10661 10662 10665 10667 10669 10671 10673 10676 10678 10680 10682 10684 10686 10689 10692 10694 10696 10697 10698 10700 10701 10701 10702 10705 10706 10707 10709 10709 10712 10715 10717 10718 10720 10722 10724 10726 10727 10728 10729 10731
10619 10621 10622 10623 10625 10627 10628 10629 10631 10633 10634 10636 10638 10639 10641 10642 10643 10644 10646 10647 10649 10651 10653 10654 10656 10658 10660 10662 10664 10666 10668 10671 10673 10675 10677 10679 10682 10684 10686 10689 10691 10692 10694 10695 10696 10698 10700 10701 10703 10704 10704 10707 10711 10713 10715 10717 10719 10720 10721 10722 10723 10724 10726
10612 10613 10615 10616 10618 10620 10621 10622 10624 10626 10627 10629 10630 10632 10633 10634 10636 10637 10639 10640 10642 10644 10645 10647 10649 10651 10653 10655 10657 10659 10660 10663 10666 10668 10670 10672 10674 10677 10679 10682 10685 10687 10688 10689 10691 10693 10695 10697 10699 10700 10700 10704 10708 10709 10711 10713 10715 10716 10717 10718 10719 10720 10722
10604 10606 10608 10609 10610 10612 10613 10614 10616 10618 10619 10621 10622 10624 10625 10626 10628 10630 10631 10633 10635 10637 10638 10640 10642 10644 10646 10647 10649 10651 10653 10655 10658 10661 10662 10664 10666 10669 10672 10674 10677 10680 10682 10683 10685 10687 10689 10692 10694 10695 10696 10699 10702 10704 10706 10708 10711 10712 10712 10713 10715 10717 10718
10596 10598 10600 10601 10602 10604 10606 10607 10608 10610 10611 10613 10614 10615 10616 10618 10620 10622 10624 10625 10627 10629 10630 10632 10634 10636 10638 10639 10641 10643 10645 10647 10650 10652 10654 10656 10658 10661 10664 10667 10670 10672 10674 10676 10678 10680 10682 10685 10687 10689 10691 10693 10696 10699 10700 10703 10706 10707 10707 10708 10711 10713 10714
10588 10590 10592 10593 10594 10596 10598 10600 10601 10602 10603 10604 10605 10606 10608 10609 10611 10613 10615 10617 10619 10620 10622 10624 10626 10629 10630 10632 10633 10635 10637 10640 10642 10643 10646 10648 10650 10652 10656 10659 10662 10664 10666 10668 10671 10673 10676 10679 10681 10682 10684 10686 10689 10693 10695 10698 10700 10701 10702 10704 10706 10708 10710
10579 10581 10583 10584 10586 10588 10590 10592 10592 10593 10595 10596 10597 10598 10599 10600 10602 10604 10606 10608 10610 10612 10614 10616 10619 10621 10622 10623 10625 10626 10628 10631 10634 10635 10637 10640 10642 10645 10648 10650 10653 10656 10657 10660 10664 10666 10668 10672 10673 10675 10678 10680 10683 10687 10689 10691 10693 10694 10696 10698 10700 10701 10705
10571 10572 10574 10575 10577 10579 10581 10583 10584 10585 10586 10587 10589 10590 10591 10592 10594 10595 10597 10599 10601 10603 10605 10607 10610 10612 10614 10615 10616 10618 10620 10622 10625 10626 10628 10631 10633 10636 10640 10642 10645 10647 10649 10652 10656 10658 10661 10664 10666 10668 10671 10673 10676 10680 10682 10684 10688 10688 10688 10691 10694 10696 10699
10561 10562 10564 10566 10567 10569 10571 10573 10574 10576 10577 10578 10580 10581 10582 10584 10585 10587 10588 10590 10592 10594 10596 10598 10600 10603 10604 10606 10607 10609 10611 10613 10615 10617 10619 10622 10624 10627 10631 10634 10636 10639 10641 10644 10648 10650 10652 10655 10657 10660 10663 10666 10669 10672 10674 10678 10682 10681 10679 10683 10688 10690 10693
10551 10552 10554 10556 10557 10559 10561 10563 10565 10566 10567 10569 10571 10572 10573 10575 10577 10579 10580 10582 10583 10585 10587 10588 10591 10593 10594 10596 10597 10599 10601 10604 10606 10607 10609 10612 10615 10618 10622 10625 10627 10629 10632 10636 10639 10642 10644 10646 10649 10651 10654 10658 10661 10664 10666 10670 10674 10674 10671 10675 10681 10683 10686
10541 10543 10544 10546 10548 10549 10551 10553 10555 10556 10557 10559 10561 10562 10564 10566 10569 10570 10572 10573 10575 10576 10578 10579 10581 10583 10584 10585 10587 10589 10592 10594 10597 10599 10600 10602 10606 10609 10612 10615 10617 10619 10623 10627 10630 10632 10635 10638 10640 10643 10646 10649 10652 10655 10658 10661 10665 10668 10665 10665 10672 10677 10680
10531 10533 10534 10536 10538 10540 10542 10543 10544 10546 10547 10549 10551 10553 10555 10558 10560 10561 10562 10563 10565 10567 10568 10570 10571 10573 10574 10575 10576 10578 10581 10584 10587 10590 10591 10593 10596 10600 10603 10606 10608 10609 10613 10618 10621 10623 10625 10628 10631 10634 10636 10639 10643 10645 10648 10652 10656 10660 10659 10657 10662 10670 10673
10521 10522 10524 10526 10528 10530 10532 10533 10534 10535 10537 10539 10542 10544 10546 10548 10550 10551 10552 10553 10555 10557 10558 10560 10562 10563 10564 10565 10566 10568 10570 10574 10578 10580 10582 10584 10587 10590 10594 10596 10598 10599 10603 10608 10611 10612 10615 10617 10621 10625 10627 10630 10633 10635 10638 10643 10647 10650 10652 10650 10653 10661 10665
10510 10512 10514 10515 10517 10519 10521 10522 10523 10525 10527 10529 10532 10535 10537 10538 10539 10540 10541 10542 10544 10546 10548 10550 10552 10553 10554 10555 10556 10558 10560 10564 10567 10570 10573 10574 10577 10580 10584 10586 10588 10590 10593 10598 10601 10602 10604 10607 10610 10615 10618 10620 10623 10626 10628 10633 10637 10641 10644 10644 10645 10651 10657
10498 10501 10503 10505 10507 10508 10509 10511 10512 10514 10517 10519 10522 10524 10526 10527 10528 10529 10529 10530 10532 10535 10537 10539 10541 10541 10542 10544 10546 10548 10551 10554 10557 10560 10562 10564 10567 10570 10573 10576 10578 10579 10583 10587 10590 10592 10594 10596 10600 10604 10608 10610 10613 10616 10619 10623 10627 10631 10634 10637 10638 10641 10648
10487 10489 10491 10493 10495 10496 10498 10499 10501 10504 10507 10509 10512 10513 10515 10515 10516 10517 10517 10518 10520 10523 10525 10527 10528 10529 10531 10533 10536 10539 10542 10544 10547 10550 10552 10554 10556 10559 10562 10565 10567 10569 10572 10576 10579 10582 10584 10587 10590 10593 10597 10599 10601 10605 10609 10612 10617 10621 10625 10629 10630 10633 10638
10475 10476 10479 10481 10483 10484 10486 10488 10490 10493 10496 10499 10501 10503 10504 10504 10504 10504 10505 10507 10509 10511 10513 10514 10515 10517 10519 10522 10526 10529 10532 10534 10537 10540 10542 10543 10546 10548 10551 10553 10555 10557 10560 10564 10567 10571 10574 10576 10580 10583 10585 10587 10590 10594 10598 10601 10605 10610 10615 10619 10622 10625 10628
10462 10464 10466 10469 10470 10472 10474 10476 10479 10482 10485 10488 10490 10491 10492 10492 10492 10492 10494 10495 10497 10499 10501 10502 10503 10505 10507 10510 10514 10518 10521 10524 10527 10529 10531 10533 10535 10537 10540 10542 10544 10546 10548 10552 10555 10559 10562 10565 10569 10573 10574 10575 10579 10583 10587 10590 10595 10599 10604 10608 10612 10616 10618
10448 10451 10454 10456 10458 10459 10461 10464 10467 10470 10474 10476 10477 10479 10479 10479 10479 10480 10482 10484 10486 10488 10489 10490 10491 10492 10495 10498 10502 10506 10510 10513 10515 10518 10520 10522 10524 10526 10528 10531 10533 10535 10536 10540 10543 10546 10550 10553 10558 10562 10564 10565 10568 10572 10575 10580 10585 10589 10594 10597 10600 10604 10608
10435 10437 10440 10442 10444 10447 10449 10452 10454 10458 10461 10463 10464 10465 10466 10466 10467 10468 10470 10472 10474 10476 10477 10477 10478 10480 10483 10486 10490 10493 10497 10500 10503 10506 10509 10511 10512 10514 10516 10519 10522 10524 10526 10528 10530 10534 10537 10541 10545 10550 10553 10555 10557 10561 10565 10569 10574 10578 10583 10587 10589 10592 10598
10422 10424 10427 10429 10431 10434 10437 10440 10443 10445 10447 10449 10450 10451 10451 10453 10454 10456 10459 10461 10462 10463 10464 10464 10466 10468 10470 10473 10477 10480 10484 10487 10490 10493 10496 10499 10500 10502 10504 10507 10510 10512 10515 10516 10518 10521 10525 10528 10532 10537 10541 10544 10547 10551 10555 10559 10562 10565 10571 10576 10579 10582 10589
10410 10412 10414 10416 10419 10422 10425 10428 10430 10432 10434 10435 10435 10436 10437 10439 10441 10444 10446 10448 10449 10450 10451 10451 10453 10455 10457 10460 10464 10468 10472 10475 10478 10480 10483 10485 10488 10490 10492 10495 10497 10500 10502 10504 10507 10510 10512 10515 10519 10523 10528 10533 10536 10540 10544 10549 10552 10554 10558 10564 10569 10573 10577
10398 10401 10403 10405 10408 10410 10413 10416 10418 10420 10420 10421 10421 10421 10423 10425 10428 10431 10433 10434 10436 10437 10437 10438 10439 10442 10445 10448 10451 10455 10460 10463 10465 10467 10469 10472 10475 10478 10480 10482 10485 10488 10489 10491 10495 10497 10500 10502 10505 10510 10515 10521 10525 10529 10532 10538 10542 10545 10547 10552 10559 10563 10563
10385 10389 10393 10395 10397 10400 10403 10405 10406 10407 10406 10406 10406 10406 10408 10411 10414 10417 10419 10420 10422 10423 10423 10423 10425 10428 10431 10434 10438 10442 10447 10450 10452 10453 10455 10458 10461 10465 10468 10470 10473 10475 10476 10478 10481 10483 10487 10489 10492 10496 10502 10508 10513 10517 10522 10527 10531 10534 10537 10541 10547 10551 10551
10371 10377 10383 10386 10388 10391 10393 10393 10393 10392 10392 10392 10392 10392 10395 10398 10401 10403 10404 10406 10407 10408 10408 10408 10411 10414 10417 10420 10424 10428 10432 10436 10438 10440 10442 10444 10447 10451 10454 10457 10460 10462 10464 10465 10466 10468 10472 10476 10480 10484 10488 10493 10499 10505 10511 10516 10519 10523 10527 10530 10534 10539 10540
10360 10367 10372 10375 10378 10380 10380 10380 10379 10378 10377 10377 10378 10380 10383 10385 10387 10388 10389 10390 10391 10393 10393 10394 10396 10400 10403 10406 10410 10414 10418 10421 10424 10426 10429 10430 10433 10437 10440 10442 10446 10449 10452 10452 10452 10453 10456 10461 10467 10472 10475 10479 10485 10493 10500 10504 10507 10511 10516 10519 10523 10527 10530
10351 10356 10359 10363 10366 10367 10368 10367 10366 10365 10364 10364 10367 10369 10371 10372 10373 10374 10374 10375 10376 10378 10379 10380 10382 10386 10389 10391 10395 10399 10402 10406 10409 10411 10414 10415 10418 10421 10425 10428 10431 10435 10438 10438 10437 10438 10440 10445 10453 10459 10462 10466 10473 10482 10489 10490 10492 10499 10504 10508 10513 10517 10520
10342 10344 10348 10351 10353 10354 10355 10355 10354 10352 10353 10354 10357 10359 10359 10360 10360 10359 10359 10361 10362 10364 10366 10367 10368 10372 10374 10376 10379 10383 10387 10391 10394 10395 10397 10399 10402 10406 10410 10413 10415 10418 10422 10423 10423 10424 10426 10430 10437 10444 10449 10455 10463 10471 10473 10472 10477 10487 10493 10498 10504 10507 10510
10333 10335 10338 10340 10342 10343 10343 10342 10342 10342 10343 10346 10348 10348 10348 10348 10347 10346 10346 10348 10350 10351 10353 10355 10355 10357 10359 10361 10363 10367 10372 10376 10378 10380 10381 10384 10387 10390 10394 10397 10398 10400 10403 10406 10408 10411 10413 10417 10423 10429 10435 10445 10455 10458 10454 10455 10465 10474 10481 10488 10494 10497 10500
10326 10328 10330 10330 10331 10331 10331 10332 10332 10333 10335 10337 10338 10338 10337 10336 10335 10335 10335 10337 10339 10340 10341 10343 10343 10343 10345 10347 10349 10353 10358 10361 10363 10365 10368 10370 10372 10375 10376 10379 10380 10382 10385 10390 10394 10398 10402 10406 10410 10416 10423 10433 10442 10442 10440 10445 10453 10459 10468 10478 10484 10487 10491
10320 10320 10321 10321 10321 10321 10322 10323 10324 10325 10326 10328 10328 10327 10325 10325 10326 10327 10327 10327 10328 10328 10329 10330 10331 10332 10333 10336 10339 10341 10344 10346 10348 10352 10355 10357 10357 10358 10359 10361 10363 10365 10369 10376 10381 10385 10390 10395 10399 10404 10411 10418 10424 10428 10432 10437 10441 10445 10455 10465 10471 10477 10482
10312 10312 10312 10312 10313 10313 10314 10315 10316 10317 10318 10318 10318 10316 10316 10317 10319 10319 10318 10317 10317 10318 10318 10319 10321 10323 10325 10327 10328 10329 10331 10333 10335 10339 10343 10344 10342 10342 10344 10346 10348 10351 10356 10363 10368 10372 10377 10382 10388 10393 10398 10401 10408 10415 10422 10427 10430 10433 10441 10449 10458 10467 10472
10304 10304 10304 10305 10305 10306 10307 10307 10308 10309 10309 10309 10308 10308 10308 10310 10311 10311 10310 10308 10307 10308 10309 10310 10312 10314 10316 10317 10316 10316 10318 10321 10324 10327 10330 10330 10328 10328 10331 10333 10336 10339 10343 10349 10354 10359 10364 10370 10375 10380 10383 10386 10393 10401 10411 10417 10420 10422 10427 10435 10445 10455 10459